|
CZ-4B R/B - Orbit
|
Parc des Îles de St-Timothée;
09:14:42
| Home | Info | Passes |
|
View from above orbital plane
|
View from above satellite
|
Ground track
|
The orbit data is extracted from the following two-line orbital elements,
1 29093U 06015B 13142.86830359 .00007082 00000-0 30160-3 0 236
2 29093 097.5598 216.9091 0103100 182.0792 270.0795 15.18507632390257
| Epoch (UTC): | 22 May 2013 20:50:21 |
| Eccentricity: | 0.0103100 |
| inclination: | 97.5598° |
| perigee height: | 439 km |
| apogee height: | 581 km |
| right ascension of ascending node: | 216.9091° |
| argument of perigee: | 182.0792° |
| revolutions per day: | 15.18507632 |
| mean anomaly at epoch: | 270.0795° |
| orbit number at epoch: | 39025 |
The dashed part of the orbit path shows where the satellite is in the earth's shadow,
|
|